Location: ?ern� Novina
(50.6762°N, 14.8696°E)
Time: 03:07:38
(UTC+00:00)

Cosmos 1869 Rocket - Pass Details

Date: 03 March 2021
Orbit: 605 x 633 km, 82.5° (Epoch: 13 April)

Event Time Altitude Azimuth Distance (km) Brightness Sun altitude
Rises 18:14:14 0° 165° (SSE) 2,863 6.7 -14.8°
Reaches altitude 10° 18:16:33 10° 157° (SSE) 1,967 5.8 -15.2°
Maximum altitude 18:20:32 36° 91° (E) 986 4.1 -15.8°
Drops below altitude 10° 18:24:34 10° 25° (NNE) 1,998 6.0 -16.4°
Sets 18:26:57 0° 17° (NNE) 2,915 6.9 -16.8°
